TimeCDT,TemperatureF,Dew PointF,Humidity,Sea Level PressureIn,VisibilityMPH,Wind Direction,Wind SpeedMPH,Gust SpeedMPH,PrecipitationIn,Events,Conditions,WindDirDegrees,DateUTC
12:53 AM,55.0,48.0,77,30.11,10.0,North,5.8,-,N/A,,Clear,10,2013-08-03 05:53:00
1:53 AM,57.9,50.0,75,30.12,10.0,North,4.6,-,N/A,,Clear,350,2013-08-03 06:53:00
2:53 AM,57.0,50.0,77,30.13,10.0,NNW,4.6,-,N/A,,Clear,340,2013-08-03 07:53:00
3:53 AM,57.0,50.0,77,30.14,10.0,NNW,4.6,-,N/A,,Mostly Cloudy,340,2013-08-03 08:53:00
4:53 AM,57.0,51.1,81,30.13,10.0,North,4.6,-,N/A,,Partly Cloudy,360,2013-08-03 09:53:00
5:53 AM,55.9,50.0,80,30.15,10.0,NNW,3.5,-,N/A,,Partly Cloudy,330,2013-08-03 10:53:00
6:53 AM,57.0,51.1,81,30.18,10.0,NNW,4.6,-,N/A,,Scattered Clouds,330,2013-08-03 11:53:00
7:53 AM,61.0,52.0,72,30.19,10.0,NNE,6.9,-,N/A,,Mostly Cloudy,20,2013-08-03 12:53:00
8:53 AM,64.0,51.1,63,30.22,10.0,NNE,6.9,-,N/A,,Overcast,30,2013-08-03 13:53:00
9:53 AM,66.9,51.1,57,30.22,10.0,North,10.4,-,N/A,,Mostly Cloudy,10,2013-08-03 14:53:00
10:53 AM,70.0,48.9,47,30.22,10.0,North,10.4,-,N/A,,Clear,10,2013-08-03 15:53:00
11:53 AM,72.0,48.9,44,30.22,10.0,NNE,6.9,-,N/A,,Clear,30,2013-08-03 16:53:00
12:53 PM,73.9,48.9,41,30.22,10.0,NE,11.5,-,N/A,,Partly Cloudy,50,2013-08-03 17:53:00
1:53 PM,73.9,48.9,41,30.22,10.0,NNE,6.9,16.1,N/A,,Scattered Clouds,30,2013-08-03 18:53:00
2:53 PM,75.9,46.0,35,30.22,10.0,Variable,6.9,17.3,N/A,,Partly Cloudy,0,2013-08-03 19:53:00
3:53 PM,77.0,43.0,30,30.21,10.0,North,12.7,21.9,N/A,,Partly Cloudy,350,2013-08-03 20:53:00
4:53 PM,75.9,45.0,33,30.21,10.0,NNE,11.5,-,N/A,,Partly Cloudy,20,2013-08-03 21:53:00
5:53 PM,75.0,46.0,36,30.21,10.0,NNE,11.5,-,N/A,,Clear,20,2013-08-03 22:53:00
6:53 PM,73.9,46.0,37,30.20,10.0,NE,9.2,-,N/A,,Partly Cloudy,40,2013-08-03 23:53:00
7:53 PM,71.1,45.0,39,30.19,10.0,NE,6.9,-,N/A,,Clear,40,2013-08-04 00:53:00
8:53 PM,64.9,46.9,52,30.20,10.0,NNE,3.5,-,N/A,,Clear,30,2013-08-04 01:53:00
9:53 PM,60.1,46.9,62,30.22,10.0,ENE,3.5,-,N/A,,Clear,60,2013-08-04 02:53:00
10:53 PM,57.0,48.0,72,30.24,10.0,Calm,Calm,-,N/A,,Clear,0,2013-08-04 03:53:00
11:53 PM,55.9,48.9,77,30.25,10.0,ENE,3.5,-,N/A,,Clear,60,2013-08-04 04:53:00